{"data":{"norad_id":54027,"epoch":"2026-09-19T13:55:22.348992Z","epoch_age_seconds":93853,"freshness":"FRESH","line1":"1 54027U 22128B   26262.58011978  .00000000  00000+0  00000+0 0  9998","line2":"2 54027   0.0187 151.9364 0001848  19.9453 266.4432  1.00273769 14857","mean_motion":1.00273769,"eccentricity":0.0001848,"inclination_deg":0.0187,"raan_deg":151.9364,"arg_perigee_deg":19.9453,"mean_anomaly_deg":266.4432,"bstar":0,"rev_number":1485,"period_min":1436.0684896566,"perigee_km":35778.246843455,"apogee_km":35793.830722825,"semimajor_km":42164.17578314,"source":"CELESTRAK","updated_at":"2026-09-20T09:00:35.525128Z"}}